Regional Weather Roundup
Issued by NWS

Home | Current Version | Previous Version | Graphics & Text | Print | Product List | Glossary On
Versions: 1 2 3 4 5 6 7 8 9 10 11 12 13 14 15 16 17 18 19 20 21 22 23 24 25 26 27 28 29 30 31 32 33 34 35 36 37 38 39 40 41 42 43 44 45 46 47 48
000
ASUS45 KSLC 290110
RWRUT

UTAH REGIONAL WEATHER ROUNDUP
NATIONAL WEATHER SERVICE SALT LAKE CITY UT
700 PM MDT SAT MAR 28 2015

UTZ001>011-023>025-290200-

NORTHERN UTAH

CITY           SKY/WX    TMP DP  RH WIND       PRES   REMARKS
BRIGHAM CITY   PTCLDY    65  27  23 NW7       30.14S
HILL AFB       MOCLDY    64  32  30 N13       30.15R
LOGAN          CLEAR     62  32  32 NW9       30.14R
OGDEN          MOCLDY    64  32  30 N12       30.14R
PROVO AIRPORT  PTCLDY    66  30  26 NW18G24   30.10R
SALT LAKE CITY MOCLDY    67  32  27 N8        30.12R
VERNAL         CLEAR     71  16  12 W16G25    30.03R
WENDOVER       MOCLDY    70  18  13 NW16G26   30.14S
HEBER CITY     MOCLDY    64  18  16 W10G17    30.13R
WEST JORDAN    CLEAR     64  34  32 NW14      30.14R

$$

UTZ012>022-026-027-290200-

SOUTHERN/CENTRAL UTAH

CITY           SKY/WX    TMP DP  RH WIND       PRES   REMARKS
BLANDING       CLEAR     70  18  14 W7        30.19S
BRYCE CANYON   CLEAR     63  19  18 W13       30.24R
CEDAR CITY       N/A     70  19  14 SW18G25   30.12S
DELTA          CLEAR     74  18  12 N8        30.08S
HANKSVILLE     PTCLDY    75  23  14 SE8       30.03S
MILFORD        PTCLDY    74  22  14 N16       30.06R
MOAB/CYNLANDS  CLEAR     71  18  13 W3        29.99F
PRICE          PTCLDY    69  23  17 W16G25    30.12R
ST GEORGE      MOCLDY    82  25  12 W13       30.03S

$$

REGIONAL REPORTS     COLORADO/ARIZONA

CITY           SKY/WX    TMP DP  RH WIND       PRES   REMARKS
CRAIG, CO      MOCLDY    61  28  28 NW26G37   30.07R
GRAND JUNCTION CLEAR     73  21  14 W9        30.02S
RIFLE          PTCLDY    70  21  15 SW20G26   30.04S
MONTROSE       CLEAR     70  22  16 N8        30.10R
CORTEZ         CLEAR     70  15  12 W7        30.15R
PAGE, AZ       CLEAR     80  19  10 W8        30.05R
GRAND CANYON   CLEAR     68  13  12 W8G17     30.23R
KINGMAN        SUNNY     81  21  11 SW12      30.07S
FLAGSTAFF      CLEAR     65  12  12 SW15      30.27R

$$

REGIONAL REPORTS    NEVADA/IDAHO/WYOMING

CITY           SKY/WX    TMP DP  RH WIND       PRES   REMARKS
LAS VEGAS, NV  SUNNY     89   6   4 S14       29.92S
ELY            SUNNY     68   4   8 NW14G22   30.19S
ELKO           SUNNY     63  14  15 NW8       30.22F
POCATELLO, ID  CLEAR     54  17  23 SW16G30   30.19R
BURLEY         CLEAR     54  22  28 W16G30    30.20R
EVANSTON, WY   PTCLDY    54  20  26 W24G33    30.18S
ROCK SPRINGS   PTCLDY    58  13  17 W25G33    30.11R
KEMMERER       PTCLDY    52  21  30 W26G32    30.18R

$$


USA.gov is the U.S. government's official web portal to all federal, state and local government web resources and services.